www.pogodaiklimat.ru

Погода и климат >> Архив погоды >> Россия >> Кировская область >> Нагорск


ПОГОДА в Нагорске

  • Прогноз погоды в Нагорске
  • Монитор погоды в Нагорске
  • Климат города

АРХИВ ПОГОДЫ в Нагорске

Время (UTC), дата Ветер
(напр.,м/с)
 
Видим.   Явления Облачность Т
(С)
Тd
(С)
f
(%)
Тe
(С)
Тes
(С)
Комфортность P
(гПа)
Po
(гПа)
Тmin
(С)
Tmax
(С)
R
(мм)
R24
(мм)
S
(см)
09 15.10 Ю 2-4
{5}
6000 м слабая морось {дождь} 10/10 240 м
[St]
+1.6 +0.8 94 -2 -2 1019.9 993.3
12 15.10 Ю 2-5
{6}
5000 м слабая морось {дождь} 10/10 210 м
[St]
+2.3 +1.5 94 -1 -1 1019.0 992.5
15 15.10 Ю 3-6
{7}
4000 м дымка {морось} 10/10 210 м
[St]
+2.8 +2.0 94 -1 -1 1017.8 991.6 +2.8 4
18 15.10 ЮЗ 2-4
{6}
500 м туман {морось} ?/? +4.2 +4.2 100 +1 +1 1016.6 990.5
21 15.10 ЮЗ 1-3
{4}
500 м туман ?/? +5.7 +5.7 100 +4 +4 1015.4 989.5
00 16.10 З 2-4
{4}
500 м туман ?/? +6.4 +6.4 100 +4 +4 1014.7 988.8
03 16.10 З 3-4
{7}
7000 м дымка {туман} 10/0
[Cs]
+6.0 +5.3 95 +3 +3 1015.1 989.2 +2.8 0.3
06 16.10 З 3-6
{6}
9000 м дымка {туман} 10/10 300 м
[St]
+7.0 +6.1 94 +4 +4 1015.9 990.0
09 16.10 З 2-4
{6}
9000 м дымка 10/10 360 м
[St]
+8.0 +7.4 96 +6 +6 1016.0 990.2
12 16.10 ЮЗ 1-2
{5}
50 км 10/10 600 м
[Sc]
+9.2 +8.1 93 +8 +8 1016.1 990.4
15 16.10 ЮЗ 2-4
{5}
50 км 10/10 420 м
[Sc]
+8.5 +7.4 93 +7 +7 1015.3 989.6 +9.2
18 16.10 ЮЗ 2-4
{5}
50 км 8/0
[Ac trans]
+8.1 +7.3 95 +6 +6 1012.4 986.8
21 16.10 ЮЗ 4-8
{8}
50 км ясно +8.5 +6.8 89 +5 +5 1009.0 983.5
00 17.10 З 4-7
{8}
50 км ясно +7.6 +5.6 87 +4 +4 1007.6 982.1
03 17.10 З 4-7
{8}
50 км 10/0
[Ac und]
+8.0 +5.6 85 +5 +5 1008.1 982.5 +7.3
06 17.10 СЗ 8-13
{18}
50 км 8/8 800 м
[Sc]
+5.4 +0.2 69 0 0 1013.8 987.8 +5.4
09 17.10 СЗ 7-13
{15}
50 км 8/8 840 м
[Sc]
+6.5 +0.9 67 +2 +2 1017.7 991.8
12 17.10 СЗ 4-7
{13}
50 км 8/8 600 м
[Sc]
+6.4 +0.5 66 +3 +3 1020.9 994.8
15 17.10 З 3-6
{12}
50 км 8/0
[Ac trans]
+4.8 -0.2 70 +2 +2 1023.4 997.1 +9.2
18 17.10 СЗ 4-8
{10}
50 км 8/0
[Ac trans]
+3.6 -1.4 70 -1 -1 1024.1 997.6
21 17.10 СЗ 2-3
{8}
50 км 8/0
[Ac trans]
+3.1 -1.0 74 0 0 1024.1 997.6
00 18.10 З 2-4
{5}
50 км 9/0
[Ac trans]
+3.2 -0.6 76 0 0 1024.0 997.5
03 18.10 ЮЗ 1-2
{4}
50 км 4/0
[Ci fib]
-0.2 -1.7 90 -2 -2 1023.2 996.4 -0.2
06 18.10 ЮЗ 1-3
{4}
50 км 8/0
[Ac trans Ci fib]
+1.9 -0.0 87 0 +1 1022.1 995.6 -0.7
09 18.10 ЮЗ 2-4
{5}
50 км 9/6 600 м
[Sc Cc]
+7.3 +0.9 64 +6 +6 1019.4 993.4
12 18.10 Ю 3-5
{7}
8000 м слабый ливневой дождь 10/8 600 м
[Cb calv Ac und]
+5.9 +2.2 77 +3 +3 1016.6 990.7
15 18.10 ЮЗ 4-8
{9}
50 км {ливн. осадки} 10/0
[Ac und]
+6.0 +4.4 89 +2 +2 1013.2 987.4 +7.6 0.3
18 18.10 ЮЗ 3-5
{8}
50 км {ливн. осадки} 9/0
[Ac trans]
+6.2 +4.3 88 +3 +3 1012.0 986.2
21 18.10 ЮЗ 4-7
{8}
50 км 8/0
[Ac trans]
+6.5 +4.9 90 +3 +3 1010.9 985.2
00 19.10 ЮЗ 4-6
{7}
50 км 8/0
[Ac trans]
+5.9 +4.5 91 +2 +2 1010.4 984.6
03 19.10 ЮЗ 2-5
{6}
50 км 4/0
[Ac trans]
+5.3 +4.4 94 +3 +3 1009.6 983.7 +5.3
06 19.10 Ю 3-5
{7}
8000 м дымка {туман} 10/10 270 м
[St]
+5.5 +4.6 94 +2 +2 1007.4 981.6 +4.4
09 19.10 Ю 3-6
{10}
50 км 8/0
[Ac trans]
+9.8 +6.5 80 +8 +9 1005.9 980.6
12 19.10 З 3-7
{8}
50 км 8/5 600 м
[Sc Ac trans]
+10.2 +6.5 78 +8 +8 1006.1 980.8
15 19.10 ЮЗ 3-7
{11}
50 км 8/0
[Ac trans]
+8.7 +5.6 81 +6 +6 1006.5 981.1 +11.1
18 19.10 З 3-4
{10}
50 км {ливн. осадки} 3/3 600 м
[Cb calv]
+5.8 +4.6 92 +2 +2 1007.4 981.7
21 19.10 З 2-3
{6}
50 км ясно +4.1 +3.1 93 +1 +1 1008.5 982.5
00 20.10 З 2-3
{4}
50 км 10/0
[Ac und]
+2.6 +1.8 94 -1 -1 1008.3 982.2
03 20.10 З 3-5
{5}
50 км 5/5 600 м
[Sc]
+2.2 +1.2 93 -2 -2 1008.8 982.6 +2.2 3
06 20.10 З 2-3
{5}
50 км 9/9 540 м
[Sc]
+3.2 +1.9 91 0 0 1009.5 983.4
09 20.10 З 3-6
{7}
50 км {ливн. осадки} 8/8 500 м
[Cb calv]
+4.5 +2.0 84 +1 +1 1010.2 984.2
12 20.10 З 3-6
{7}
50 км {ливн. осадки} 8/8 600 м
[Cb calv Ci fib]
+4.9 +1.3 77 +2 +2 1011.2 985.3
15 20.10 З 3-5
{7}
50 км 3/0
[Ac trans]
+1.9 -0.3 85 -2 -2 1013.0 986.8 +4.9 0.0
18 20.10 СЗ 4-6
{7}
50 км 8/0
[Ac trans]
+1.8 +0.2 89 -3 -3 1015.1 988.7
21 20.10 СЗ 3-5
{7}
50 км 10/0
[Ac und]
+0.2 -1.5 88 -4 -4 1017.6 991.1
00 21.10 З 3-4
{5}
50 км {ливн. осадки} ясно -1.5 -2.6 92 -7 -7 1019.5 992.6
03 21.10 З 3-4
{5}
50 км 5/0
[Ac trans]
-2.6 -3.6 93 -8 -8 1020.9 993.9 -2.6 0.2
06 21.10 З 2-4
{5}
50 км 10/0
[Ac und]
-0.5 -1.4 94 -4 -4 1022.0 995.2 -2.7
09 21.10 З 3-5
{7}
50 км 8/8 420 м
[Sc]
+2.1 -0.7 82 -2 -2 1023.1 996.6
12 21.10 З 3-5
{6}
50 км {ливн. осадки} 5/4 600 м
[Cb calv Ci sp]
+1.6 -0.3 87 -3 -3 1024.3 997.6
15 21.10 З 2-3
{4}
50 км 9/9 540 м
[Sc]
+0.2 -0.9 92 -4 -4 1024.5 997.7 +3.7 0.0
18 21.10 З 2-4
{4}
50 км {ливн. осадки} 9/0
[Ac trans]
+0.4 -0.7 92 -3 -3 1025.8 999.0
21 21.10 ЮЗ 1-3
{4}
50 км 10/0
[Ac und]
+0.1 -0.8 94 -2 -2 1026.1 999.3
00 22.10 Ю 2-6
{7}
50 км 10/0
[Ac und]
-0.5 -1.4 94 -4 -4 1025.4 998.5
03 22.10 Ю 2-5
{7}
50 км {ливн. осадки} 10/10 330 м
[Cb calv]
-1.2 -2.2 93 -5 -5 1024.8 997.8 -1.2 0.1

 

Местоположение метеостанции Нагорск (Кировская область, Россия): широта 59.32 долгота 50.83 высота над уровнем моря 213 м.

В архиве по умолчанию представлена погода в Нагорске за последнюю неделю. Архивные данные за месяц целиком и за предыдущие месяцы, начиная с января 2011 года, Вы можете получить, выбрав интересующий диапазон дат из раскрывающегося списка и нажав кнопку "Ввод!".


*Определитесь, кто Вы:
робот инопланетянин человек

Внимание! Время в таблицах - всемирное. Для получения местного времени необходимо прибавить поправку, которая в Нагорске равна 3 ч.

Смотрите также архив погоды в соседних городах и на ближайших метеорологических станциях:

Погода в Белой Холунице (Кировская область, Россия) (55 км)
Погода в Кирсе (Кировская область, Россия) (81 км)
Погода в Кирове (Кировская область, Россия) (106 км)
Погода в Фаленках (Кировская область, Россия) (116 км)
Погода в Койгородке (Коми, Россия) (126 км)
Погода в Объячеве (Коми, Россия) (134 км)
Погода в Кумене (Кировская область, Россия) (146 км)
Погода в Опарино (Кировская область, Россия) (155 км)
Погода в Усть-Черной (Пермский край, Россия) (163 км)
Погода в Глазове (Удмуртия, Россия) (167 км)

Пояснения к столбцам:

Ветер - указаны скорость ветра в м/с - средняя за 10 мин, порывы в срок и между сроками (в фигурных скобках) и направление, откуда дует ветер: С - северный, СВ - северо-восточный, В - восточный, ЮВ - юго-восточный, Ю - южный, ЮЗ - юго-западный, З - западный, СЗ - северо-западный.
Видимость - горизонтальная дальность видимости в метрах или километрах. При видимости от 1 до 10 км при отсутствии осадков обычно наблюдается дымка, при ухудшении видимости до 1 км и менее - туман. В сухую погоду видимость может ухудшаться дымом, пылью или мглою.
Явления - указаны атмосферные явления, наблюдавшиеся в срок или в последний час перед сроком; фигурными скобками обозначены явления, наблюдавшиеся между сроками (за 1-3 часа до срока); квадратными скобками обозначены град или гололедные отложения с указанием их диаметра в мм.
Облачность - указаны через наклонную черту общая и нижняя облачность в баллах и высота нижней границы облаков в метрах; квадратными скобками обозначены формы облаков: Ci - перистые, Cs - перисто-слоистые, Cc - перисто-кучевые, Ac - высококучевые, As - высокослоистые, Sc - слоисто-кучевые, Ns - слоисто-дождевые, Cu - кучевые, Cb - кучево-дождевые. Подробнее классификацию облаков см. в Атласе облаков (PDF).
T - Температура воздуха - температура, измеренная на высоте 2 м над землей.
Td - Температура точки росы - температура, при понижении до которой содержащийся в воздухе водяной пар достигнет насыщения.
f - Относительная влажность воздуха - влажноcть воздуха, измеренная на высоте 2 м над землей.
Te - Эффективная температура - температура, которую ощущает одетый по сезону человек в тени. Характеристика душности погоды. При расчете учитывается влияние влажности воздуха и скорости ветра на теплоощущения человека.
Tes - Эффективная температура на солнце - температура, которую ощущает человек, с поправкой на солнечный нагрев. Характеристика знойности погоды. Зависит от высоты солнца над горизонтом, облачности и скорости ветра. Ночью, в пасмурную погоду, а также при ветре 12 м/с и более поправка равна нулю.
P - Атмосферное давление - приведенное к уровню моря атмосферное давление.
Po - Атмосферное давление - измеренное на уровне метеостанции атмосферное давление.
Tmin - Минимальная температура - минимум температуры воздуха на высоте 2 м над землей.
Tmax - Максимальная температура - максимум температуры воздуха на высоте 2 м над землей.
R - Количество осадков - Количество выпавших осадков за период времени, мм. При наведении курсора мыши на число - период времени, за который выпало указанное количество осадков.
R24 - Количество осадков - Количество выпавших осадков за 24 часа, мм.
S - Снежный покров - Высота снежного покрова, см. При наведении курсора мыши на число - состояние снежного покрова и степень покрытия местности в баллах.